This is the latest recevied weather packets stored in our database for station/object SP5QWJ. If no packets are shown the sender has not sent any weather packets the latest 10 day(s).
| Time | Temp. | Humidity | Pressure | Rain* | Wind** | Luminosity | Snow |
|---|---|---|---|---|---|---|---|
| 1777948444 | 13.33° C | 87% | 1009.5 hPa | - | - | - | - |
| 1777947533 | 13.33° C | 85% | 1009.5 hPa | - | - | - | - |
| 1777946622 | 13.89° C | 83% | 1009.6 hPa | - | - | - | - |
| 1777945711 | 13.89° C | 82% | 1009.7 hPa | - | - | - | - |
| 1777944800 | 13.89° C | 81% | 1009.8 hPa | - | - | - | - |
| 1777943889 | 14.44° C | 79% | 1009.7 hPa | - | - | - | - |
| 1777942978 | 14.44° C | 78% | 1009.7 hPa | - | - | - | - |
| 1777942065 | 14.44° C | 77% | 1009.7 hPa | - | - | - | - |
| 1777941154 | 15° C | 75% | 1009.9 hPa | - | - | - | - |
| 1777940243 | 15.56° C | 74% | 1009.8 hPa | - | - | - | - |
| 1777939332 | 15.56° C | 72% | 1009.9 hPa | - | - | - | - |
| 1777938421 | 15.56° C | 71% | 1009.9 hPa | - | - | - | - |
| 1777937510 | 16.11° C | 70% | 1010.1 hPa | - | - | - | - |
| 1777936599 | 16.11° C | 69% | 1010.1 hPa | - | - | - | - |
| 1777935688 | 16.11° C | 68% | 1010.2 hPa | - | - | - | - |
| 1777934777 | 16.67° C | 66% | 1010.1 hPa | - | - | - | - |
| 1777933865 | 16.67° C | 63% | 1010.2 hPa | - | - | - | - |
| 1777932954 | 17.22° C | 62% | 1010.2 hPa | - | - | - | - |
| 1777932043 | 17.22° C | 60% | 1010.3 hPa | - | - | - | - |
| 1777931132 | 17.78° C | 59% | 1010.3 hPa | - | - | - | - |
| 1777930221 | 17.78° C | 58% | 1010.3 hPa | - | - | - | - |
| 1777929310 | 17.22° C | 58% | 1010.4 hPa | - | - | - | - |
| 1777928400 | 17.78° C | 56% | 1010.5 hPa | - | - | - | - |
| 1777927488 | 17.78° C | 56% | 1010.3 hPa | - | - | - | - |
| 1777926577 | 18.33° C | 55% | 1010.2 hPa | - | - | - | - |
* Rain since midnight (hover to see other rain measurements)
** Current wind speed in m/s (hover to see current wind gust speed)